Satellite-Ground Cal/Val Region Overpasses Predictions

Prediction of Satellite NPP Overpassing Cal/Val Region: PacNW

Region Location: (Latitude: 10.00, Longitude: 139.50) to (Latitude: 22.70, Longitude: 165.60).

Table of predicted overpasses for the next 14.0 days since TLE Epoch: 3/15/2019
Interval Starting Time Starting Location Ending Time Ending Location
1 03/16/2019 02:45:29 ( 10.01, 158.29) 03/16/2019 02:49:05 ( 22.69, 155.28)
2 03/16/2019 15:17:22 ( 22.69, 155.53) 03/16/2019 15:20:58 ( 10.00, 152.51)
3 03/17/2019 02:26:26 ( 10.01, 163.05) 03/17/2019 02:30:02 ( 22.69, 160.04)
4 03/17/2019 14:58:19 ( 22.68, 160.29) 03/17/2019 15:01:55 ( 10.00, 157.27)
5 03/18/2019 02:10:05 ( 19.46, 165.59) 03/18/2019 02:11:00 ( 22.69, 164.80)
6 03/18/2019 03:48:54 ( 10.02, 142.44) 03/18/2019 03:52:24 ( 22.35, 139.51)
7 03/18/2019 14:39:17 ( 22.68, 165.05) 03/18/2019 14:42:53 ( 10.00, 162.03)
8 03/18/2019 16:20:47 ( 22.67, 139.67) 03/18/2019 16:20:58 ( 22.03, 139.51)
9 03/19/2019 03:29:51 ( 10.02, 147.20) 03/19/2019 03:33:27 ( 22.70, 144.18)
10 03/19/2019 16:01:44 ( 22.67, 144.43) 03/19/2019 16:05:19 ( 10.05, 141.43)
11 03/20/2019 03:10:49 ( 10.02, 151.96) 03/20/2019 03:14:24 ( 22.64, 148.95)
12 03/20/2019 15:42:42 ( 22.67, 149.19) 03/20/2019 15:46:17 ( 10.05, 146.19)
13 03/21/2019 02:51:47 ( 10.02, 156.72) 03/21/2019 02:55:21 ( 22.65, 153.71)
14 03/21/2019 15:23:39 ( 22.67, 153.95) 03/21/2019 15:27:14 ( 10.04, 150.95)
15 03/22/2019 02:32:44 ( 10.03, 161.48) 03/22/2019 02:36:19 ( 22.65, 158.47)
16 03/22/2019 15:04:37 ( 22.66, 158.71) 03/22/2019 15:08:12 ( 10.04, 155.71)
17 03/23/2019 02:14:30 ( 12.85, 165.59) 03/23/2019 02:17:17 ( 22.65, 163.23)
18 03/23/2019 03:55:12 ( 10.04, 140.86) 03/23/2019 03:56:51 ( 15.85, 139.51)
19 03/23/2019 14:45:34 ( 22.66, 163.47) 03/23/2019 14:49:09 ( 10.04, 160.47)
20 03/24/2019 03:36:09 ( 10.04, 145.62) 03/24/2019 03:39:44 ( 22.66, 142.62)
21 03/24/2019 14:29:40 ( 11.62, 165.59) 03/24/2019 14:30:07 ( 10.03, 165.23)
22 03/24/2019 16:08:02 ( 22.65, 142.85) 03/24/2019 16:11:37 ( 10.03, 139.85)
23 03/25/2019 03:17:07 ( 10.05, 150.38) 03/25/2019 03:20:42 ( 22.67, 147.38)
24 03/25/2019 15:48:59 ( 22.64, 147.61) 03/25/2019 15:52:34 ( 10.02, 144.61)
25 03/26/2019 02:58:04 ( 10.05, 155.14) 03/26/2019 03:01:39 ( 22.67, 152.14)
26 03/26/2019 15:29:56 ( 22.70, 152.39) 03/26/2019 15:33:32 ( 10.02, 149.37)
27 03/27/2019 02:39:02 ( 10.05, 159.90) 03/27/2019 02:42:37 ( 22.68, 156.89)
28 03/27/2019 15:10:53 ( 22.69, 157.14) 03/27/2019 15:14:29 ( 10.01, 154.13)
29 03/28/2019 02:19:58 ( 10.00, 164.67) 03/28/2019 02:23:34 ( 22.68, 161.65)
30 03/28/2019 14:51:51 ( 22.69, 161.90) 03/28/2019 14:55:27 ( 10.01, 158.89)
31 03/29/2019 03:42:26 ( 10.01, 144.05) 03/29/2019 03:46:02 ( 22.70, 141.04)
32 03/29/2019 14:34:03 ( 18.34, 165.60) 03/29/2019 14:36:25 ( 10.01, 163.65)


NCC Satellite Cal/Val Overpasses Prediction Service
